Regional Weather Roundup
Issued by NWS

Home | Current Version | Previous Version | Graphics & Text | Print | Product List | Glossary On
Versions: 1 2 3 4 5 6 7 8 9 10 11 12 13 14 15 16 17 18 19 20 21 22 23 24 25 26 27
000
ASUS45 KSLC 271610
RWRUT

UTAH REGIONAL WEATHER ROUNDUP
NATIONAL WEATHER SERVICE SALT LAKE CITY UT
1000 AM MDT SAT MAY 27 2017

UTZ001>011-023>025-271700-

NORTHERN UTAH

CITY           SKY/WX    TMP DP  RH WIND       PRES   REMARKS
BRIGHAM CITY   SUNNY     54  35  49 CALM      30.23S
HILL AFB       SUNNY     54  35  48 E3        30.22R
LOGAN          SUNNY     52  39  61 CALM      30.23S
OGDEN          SUNNY     55  35  47 MISG      30.22R
SALT LAKE CITY MOSUNNY   58  38  47 NW7       30.21R
TOOELE VALLEY  SUNNY     55  39  54 N6        30.23R
WENDOVER       SUNNY     57  38  48 SE6       30.23R
WEST JORDAN    SUNNY     56  44  64 N9        30.22S

$$

UTZ011>015-024>027-271700-

CENTRAL/NORTHEAST UTAH

CITY           SKY/WX    TMP DP  RH WIND       PRES   REMARKS
PROVO AIRPORT  SUNNY     54  38  54 VRB3      30.22R
MOAB/CANYONLAN SUNNY     67  26  21 W13G18    30.07R
DELTA          SUNNY     55  34  44 NE7       30.21R
PRICE          SUNNY     58  32  37 N12       30.15R
ROOSEVELT      SUNNY     61  30  31 SW5       30.17R
VERNAL         PTSUNNY   61  34  36 NE6       30.15R

$$

UTZ013>016-019>022-027-271700-

SOUTHERN UTAH

CITY           SKY/WX    TMP DP  RH WIND       PRES   REMARKS
BRYCE CANYON   CLOUDY    52  31  44 N12       30.22S
CEDAR CITY     MOSUNNY   61  31  32 N9        30.18R
MILFORD        SUNNY     60  34  37 N16       30.19R
ST GEORGE      SUNNY     72  35  25 CALM      30.05R
HANKSVILLE     SUNNY     64  30  27 N6        30.13R
BLANDING       SUNNY     65  28  24 N9G20     30.19R

$$

REGIONAL REPORTS     COLORADO/ARIZONA

CITY           SKY/WX    TMP DP  RH WIND       PRES   REMARKS
CRAIG, CO      CLOUDY    48  36  63 N3        30.18S
GRAND JUNCTION SUNNY     64  33  31 NW10G16   30.10R
RIFLE, CO      PTSUNNY   57  34  41 CALM      30.13R
MONTROSE, CO   CLOUDY    58  32  37 N6        30.14S
CORTEZ, CO     SUNNY     65  32  29 VRB3      30.12R
COLORADO CITY    N/A     72  34  25 CALM      30.15R
PAGE, AZ       SUNNY     68  33  27 CALM      30.08S
GRAND CANYON   SUNNY     62  27  26 W8        30.20R
KINGMAN, AZ    SUNNY     74  35  24 W6        30.04R
FLAGSTAFF, AZ  SUNNY     60  28  29 SW5       30.21R

$$

REGIONAL REPORTS    NEVADA/IDAHO/WYOMING

CITY           SKY/WX    TMP DP  RH WIND       PRES   REMARKS
LAS VEGAS, NV  SUNNY     80  28  15 NE16      29.98R
ELY, NY        SUNNY     53  32  44 N10       30.24R
ELKO, NV       SUNNY     54  34  46 CALM      30.23S
POCATELLO, ID  PTSUNNY   50  45  83 CALM      30.25S
BURLEY, ID     SUNNY     54  43  66 CALM      30.22R
FORT BRIDGER,  MOSUNNY   50  34  53 W8        30.27R
EVANSTON, WY   MOSUNNY   44  35  70 VRB3      30.25S
ROCK SPRINGS,  PTSUNNY   45  36  70 VRB3      30.23R
KEMMERER, WY     N/A     45  32  61 SW10      30.25R

$$




USA.gov is the U.S. government's official web portal to all federal, state and local government web resources and services.